sat.trackr.live / text

‹ back to catalog

STARLINK-36639

NORAD 67669 · 2026-022X

PAYLOAD ACTIVE UNKNOWN

§ Identity

Operator
Country
US
Launch date
2026-02-02
Launch site
AFWTR
Launch vehicle
Mass (kg)
RCS (m²)

Purposes: comms

External: N2YO · Heavens-Above · Gunter

§ Orbital elements

Epoch: 2026-09-19T19:42:59.736672Z

Period
93.91 min
Inclination
97.2853°
Eccentricity
0.0000761
Mean motion
15.33456938 rev/d
Perigee alt
465.0 km
Apogee alt
466.0 km
Semi-major
6,843.6 km
B*
5.7813e-4
RAAN
294.4040°
Arg perigee
109.8677°
Mean anomaly
250.2648°
Rev number
3,532

§ Raw data

STARLINK-366391 67669U 26022X   26262.82152473  .00018642  00000+0  57813-3 0  99932 67669  97.2853 294.4040 0000761 109.8677 250.2648 15.33456938 35322

JSON: /api/v1/satellites/67669 · /tle

For live sub-satellite position, see the globe view (requires WebGL).

§ Visibility from observer

Set your observer location to see the next 7 days of passes ≥ 10°. The values pass through the URL so the page stays shareable.

No JS? Fill the form by hand. The geolocation button needs JavaScript.